Back to catalog

BREEZE-M DEB

TANK

AliveHEO
NORAD 38089·DEBRIS·🇷🇺 Russia

Launched Feb 14, 2012 from Baikonur Cosmodrome

Loading…

Next Passes (next 24 hours)

TLE

FreshSource: Space-Track

Epoch: Sep 14, 2026, 14:11 UTC

1 38089U 12007C   26257.59105645  .00002665  00000-0  48066-3 0  9991
2 38089  49.5895 283.8117 4939921 196.3906 139.1029  5.71350785294158

Track BREEZE-M DEB in real time with AllMySat

Download on the App Store